Terminal Aerodrome Forecast
Issued by NWS Jackson, KY

Home | Current Version | Previous Version | Text Only | Print | Product List | Glossary On
Versions: 1 2 3 4 5 6 7 8 9 10 11 12 13 14 15 16 17 18
000
FTUS43 KJKL 181524 AAA
TAFLOZ
TAF AMD
KLOZ 181524Z 1815/1912 20010G22KT P6SM VCSH OVC045
     FM182100 20017G31KT 3SM SHRA VCTS OVC025CB
     FM190300 28012G25KT 4SM -RA BR BKN020=

USA.gov is the U.S. government's official web portal to all federal, state and local government web resources and services.